This demonstration page uses our WeatherBlox Daily Observations layout. Learn more.

Left ArrowRight Arrow

30.21309, -93.2044

Hourly Observations for January 31, 2022

Temp ( °F °C ) Dew Point ( °F °C ) Humidity (%) Winds ( mph kmh ) Pressure ( in mb ) Visibility ( mi km ) Precip ( " mm )
12:15 am 00:15 Clear with Mist and Fog 46 8 45 7.1 94 94 Calm 30.15 1021 7 11 0.00 0.00
12:35 am 00:35 Mostly Cloudy with Mist and Fog 46 7.9 45 7.1 95 95 Calm 30.14 1021 1 2 0.00 0.00
12:55 am 00:55 Clear with Mist and Fog 45 7.2 44 6.5 95 95 Calm 30.13 1020 4 6 0.00 0.00
1:15 am 01:15 Mostly Cloudy with Mist and Fog 42 5.4 40 4.6 95 95 SE 3 6 30.13 1020 2 2 0.00 0.00
1:35 am 01:35 Mostly Cloudy with Fog 43 6.2 42 5.5 95 95 Calm 30.13 1020 0 0 0.00 0.00
1:55 am 01:55 Cloudy with Fog 44 6.6 43 6 96 96 Calm 30.13 1020 0 0 0.00 0.00
2:15 am 02:15 Mostly Cloudy with Fog 41 5.1 40 4.5 96 96 ESE 3 6 30.12 1020 0 0 0.00 0.00
2:35 am 02:35 Mostly Cloudy with Mist and Fog 41 5 40 4.4 96 96 Calm 30.12 1020 1 2 0.00 0.00
2:55 am 02:55 Clear with Mist and Fog 40 4.5 39 3.9 96 96 E 3 6 30.12 1020 4 6 0.00 0.00
3:15 am 03:15 Clear with Mist and Fog 40 4.5 39 3.8 95 95 E 5 7 30.11 1020 5 8 0.00 0.00
3:35 am 03:35 Clear with Mist and Fog 40 4.5 39 3.9 96 96 E 3 6 30.11 1020 4 6 0.00 0.00
3:55 am 03:55 Mostly Cloudy with Mist and Fog 40 4.2 38 3.6 96 96 ESE 3 6 30.11 1020 1 2 0.00 0.00
4:15 am 04:15 Mostly Cloudy with Fog 39 4 38 3.4 96 96 ESE 5 7 30.11 1020 0 0 0.00 0.00
4:35 am 04:35 Mostly Cloudy with Mist and Fog 40 4.5 39 3.9 96 96 E 3 6 30.11 1020 1 2 0.00 0.00
4:55 am 04:55 Clear with Mist and Fog 41 5.2 40 4.6 96 96 E 3 6 30.11 1020 5 8 0.00 0.00
5:15 am 05:15 Clear 42 5.6 41 4.9 95 95 E 3 6 30.11 1020 10 16 0.00 0.00
5:35 am 05:35 Clear 43 5.9 41 5.2 95 95 Calm 30.12 1020 7 11 0.00 0.00
6:00 am 06:00 Mostly Clear 43 6 41 5 93 93 Calm 30.12 1020 10 16 0.00 0.00
6:55 am 06:55 Mostly Clear 41 5 39 4 93 93 Calm 30.13 1020 10 16 0.00 0.00
7:50 am 07:50 Mostly Sunny 45 7 43 6 93 93 Calm 30.14 1021 10 16 0.00 0.00
8:55 am 08:55 Mostly Sunny 54 12 50 10 88 88 ESE 6 9 30.14 1021 10 16 0.00 0.00
9:50 am 09:50 Mostly Sunny 63 17 52 11 68 68 ESE 14 22 30.13 1020 10 16 0.00 0.00
10:45 am 10:45 Mostly Sunny 66 19 50 10 56 56 ESE 14 22 30.13 1020 10 16 0.00 0.00
11:45 am 11:45 Partly Cloudy 68 20 48 9 49 49 ESE 12 19 30.09 1019 10 16 0.00 0.00
12:55 pm 12:55 Mostly Sunny 68 20 48 9 49 49 SE 13 20 30.05 1018 10 16 0.00 0.00
1:55 pm 13:55 Partly Cloudy 68 20 46 8 46 46 SE 10 17 30.02 1017 10 16 0.00 0.00
2:47 pm 14:47 Partly Cloudy 68 20 48 9 49 49 SE 14 22 30.00 1016 10 16 0.00 0.00
3:55 pm 15:55 Cloudy 64 18 50 10 60 60 SE 12 19 30.01 1016 10 16 0.00 0.00
4:45 pm 16:45 Cloudy 63 17 50 10 64 64 SE 13 20 30.01 1016 10 16 0.00 0.00
6:54 pm 18:54 Mostly Cloudy 59 15 52 11 77 77 SE 7 11 30.00 1016 10 16 0.00 0.00
7:55 pm 19:55 Mostly Cloudy 59 15 52 11 77 77 SE 12 19 30.01 1016 10 16 0.00 0.00
8:55 pm 20:55 Mostly Cloudy 59 15 52 11 77 77 SE 15 24 30.00 1016 10 16 0.00 0.00
9:56 pm 21:56 Mostly Cloudy 57 14 52 11 82 82 SE 12 19 30.00 1016 10 16 0.00 0.00
10:15 pm 22:15 Clear 58 14.6 52 10.9 79 79 SE 9 15 30.00 1016 10 16 0.00 0.00
10:35 pm 22:35 Clear 58 14.5 52 10.9 79 79 ESE 8 13 29.99 1016 10 16 0.00 0.00
10:55 pm 22:55 Partly Cloudy 58 14.2 52 10.9 81 81 ESE 7 11 29.99 1016 10 16 0.00 0.00
11:15 pm 23:15 Cloudy 58 14.2 52 11 81 81 E 6 9 29.98 1015 10 16 0.00 0.00
11:35 pm 23:35 Partly Cloudy 57 13.9 52 10.9 82 82 E 7 11 29.98 1015 10 16 0.00 0.00
11:55 pm 23:55 Partly Cloudy 57 13.8 52 10.9 83 83 E 8 13 29.97 1015 10 16 0.00 0.00

Powered by AerisWeather